Weather History for Dover AFB, DE

Change the Weather History Date:

Thursday, April 11, 2013

  Actual Average Record
Temperature  
Mean Temperature 62 °F -  
Max Temperature 75 °F 61 °F 80 °F (2014)
Min Temperature 49 °F 40 °F 27 °F (2007)
Degree Days  
Heating Degree Days 3    
Growing Degree Days 12 (Base 50)    
Moisture  
Dew Point 55 °F    
Average Humidity 91    
Maximum Humidity 100    
Minimum Humidity 58    
Precipitation  
Precipitation 0.00 in - - ()
Sea Level Pressure  
Sea Level Pressure 29.88 in    
Wind  
Wind Speed 10 mph (East)    
Max Wind Speed 23 mph    
Max Gust Speed 29 mph    
Visibility 9 miles    
Events      
Averages and records for this station are not official NWS values.
T = Trace of Precipitation, MM = Missing Value Source: NWS Daily Summary

Daily Weather History Graph

Daily Weather History Graph

Search for Another Location

Airport:

Trip Planner

Search our weather history database for the weather conditions in past years. The results will help you decide how hot, cold, wet, or windy it might be!

Date:

Astronomy

Apr. 11, 2013 Rise Set
Actual Time 6:30 AM EDT 7:35 PM EDT
Civil Twilight 6:03 AM EDT 8:03 PM EDT
Nautical Twilight 5:30 AM EDT 8:35 PM EDT
Astronomical Twilight 4:56 AM EDT 9:09 PM EDT
Moon 7:01 AM EDT (4/11) 9:06 PM EDT (4/11)
Length of Visible Light 13h 59m
Length of Day
13h 04m
New Moon, 2% of the Moon is Illuminated
Apr 11
New Moon
Apr 18
First Quarter
Apr 25
Full
May 2
Last Quarter
May 9
New

Hourly Weather History & Observations

Time (EDT) Temp. Dew Point Humidity Pressure Visibility Wind Dir Wind Speed Gust Speed Precip Events Conditions
12:55 AM 62.4 °F 57.6 °F 84% 29.87 in 10.0 mi East 5.8 mph - N/A   Scattered Clouds
1:55 AM 59.7 °F 57.7 °F 93% 29.89 in 10.0 mi Calm Calm - N/A   Partly Cloudy
2:55 AM 58.6 °F 57.9 °F 97% 29.86 in 10.0 mi SSE 6.9 mph - N/A   Clear
3:55 AM 58.5 °F 57.4 °F 96% 29.86 in 10.0 mi SSE 9.2 mph - N/A   Mostly Cloudy
4:55 AM 56.7 °F 56.3 °F 99% 29.86 in 10.0 mi South 6.9 mph - N/A   Scattered Clouds
5:55 AM 59.0 °F 57.6 °F 95% 29.83 in 10.0 mi SSE 10.4 mph - N/A   Overcast
6:55 AM 57.6 °F 56.7 °F 97% 29.87 in 10.0 mi NNW 9.2 mph - N/A   Clear
7:55 AM 62.1 °F 59.0 °F 90% 29.89 in 10.0 mi NNW 6.9 mph - N/A   Clear
8:55 AM 66.2 °F 59.5 °F 79% 29.88 in 10.0 mi Calm Calm - N/A   Clear
9:55 AM 70.7 °F 59.4 °F 67% 29.88 in 10.0 mi Variable 3.5 mph - N/A   Clear
10:55 AM 72.3 °F 59.5 °F 64% 29.88 in 10.0 mi ESE 4.6 mph - N/A   Clear
11:55 AM 74.8 °F 60.6 °F 61% 29.88 in 10.0 mi East 5.8 mph - N/A   Clear
12:55 PM 75.7 °F 60.1 °F 58% 29.86 in 10.0 mi ENE 9.2 mph - N/A   Clear
1:55 PM 67.1 °F 58.6 °F 74% 29.86 in 10.0 mi East 12.7 mph 21.9 mph N/A   Clear
2:55 PM 63.3 °F 56.7 °F 79% 29.86 in 10.0 mi East 16.1 mph 26.5 mph N/A   Clear
3:30 PM 60.8 °F 55.4 °F 82% 29.86 in 10.0 mi East 13.8 mph 24.2 mph N/A   Partly Cloudy
3:39 PM 59.0 °F 55.4 °F 88% 29.87 in 10.0 mi East 17.3 mph 26.5 mph N/A   Mostly Cloudy
3:48 PM 57.2 °F 55.4 °F 94% 29.88 in 10.0 mi East 19.6 mph 27.6 mph N/A   Mostly Cloudy
3:55 PM 56.1 °F 54.7 °F 95% 29.88 in 10.0 mi East 16.1 mph 27.6 mph N/A   Overcast
4:21 PM 55.4 °F 55.4 °F 100% 29.87 in 10.0 mi ENE 13.8 mph 25.3 mph N/A   Overcast
4:55 PM 55.6 °F 55.0 °F 98% 29.88 in 10.0 mi ENE 16.1 mph 28.8 mph N/A   Overcast
5:02 PM 55.4 °F 55.4 °F 100% 29.88 in 10.0 mi ENE 12.7 mph 26.5 mph N/A   Overcast
5:12 PM 55.4 °F 53.6 °F 94% 29.88 in 10.0 mi East 15.0 mph 24.2 mph N/A   Overcast
5:26 PM 55.4 °F 53.6 °F 94% 29.87 in 10.0 mi East 15.0 mph 24.2 mph N/A   Overcast
5:55 PM 56.3 °F 54.0 °F 92% 29.88 in 10.0 mi NE 11.5 mph 18.4 mph N/A   Overcast
6:55 PM 55.0 °F 54.3 °F 97% 29.89 in 10.0 mi East 16.1 mph - N/A   Overcast
7:11 PM 55.4 °F 53.6 °F 94% 29.90 in 10.0 mi East 17.3 mph 24.2 mph N/A   Overcast
7:47 PM 53.6 °F 53.6 °F 100% 29.89 in 10.0 mi East 13.8 mph - N/A   Overcast
7:55 PM 52.9 °F 52.5 °F 99% 29.89 in 10.0 mi East 19.6 mph 25.3 mph N/A   Overcast
8:53 PM 51.8 °F 51.8 °F 100% 29.89 in 9.0 mi East 23.0 mph - N/A   Overcast
8:55 PM 52.2 °F 51.8 °F 99% 29.89 in 7.0 mi East 23.0 mph - N/A   Overcast
9:04 PM 51.8 °F 51.8 °F 100% 29.90 in 5.0 mi East 19.6 mph 25.3 mph N/A   Overcast
9:15 PM 51.8 °F 51.8 °F 100% 29.90 in 4.0 mi East 23.0 mph 27.6 mph N/A   Overcast
9:55 PM 50.4 °F 50.4 °F 100% 29.91 in 8.0 mi East 17.3 mph 24.2 mph N/A   Overcast
10:04 PM 50.0 °F 50.0 °F 100% 29.90 in 10.0 mi East 16.1 mph 26.5 mph N/A   Overcast
10:30 PM 50.0 °F 50.0 °F 100% 29.90 in 9.0 mi East 17.3 mph 24.2 mph N/A   Overcast
10:55 PM 49.6 °F 49.6 °F 100% 29.89 in 5.0 mi East 19.6 mph 26.5 mph N/A   Overcast
10:58 PM 50.0 °F 50.0 °F 100% 29.89 in 4.0 mi East 16.1 mph 26.5 mph N/A   Overcast
11:55 PM 50.0 °F 50.0 °F 100% 29.88 in 4.0 mi ENE 18.4 mph - N/A   Overcast
11:58 PM 50.0 °F 50.0 °F 100% 29.88 in 4.0 mi ENE 13.8 mph 24.2 mph N/A   Overcast